星链-5577 (STARLINK-5577 )

导读

STARLINK-5577是美国SpaceX星链星座中的一颗通信卫星,于2023年3月3日发射入轨,属于星链第一代组网卫星。它运行在近地轨道,配备氪离子推进系统与自主避碰能力,依托相控阵天线为全球提供高速低延迟卫星互联网接入。作为星链规模化部署的一部分,它承担着扩展星座覆盖范围的任务,退役后会再入大气层完全销毁,减少空间碎片影响,截至当前已在轨稳定运行三年,是全球低轨巨型通信星座的组成单元。

基本信息
目录编号:
55751
目录名称:
STARLINK-5577
国际标识:
2023-028L
轨道中心:
EARTH
卫星名称:
星链-5577
卫星全名:
星链-5577 (STARLINK-5577 )
卫星状态:
在轨 (已飞行1299 天)
发射日期:
2023-03-03 UTC
国别 :
美国 (US)
星等 :
--
该卫星已列入 空间交会检测服务 Space Conjunction Data Service (SCDS) ,当前飞行风险评估等级: 无高风险
轨道信息
数据来源 国际轨道数据
星历时间: 2026-09-22T22:00:03+0800
6小时前
查看轨道信息
半长轴: 6925.72km
偏心率: 0.0004179
轨道倾角: 70.002°
近地点辐角 277.769°
升交点赤经 108.037°
平近点角 50.590°
近地点: 544.688km
远地点: 550.478km
周期: 95.600分钟
每日圈数: 15.062789
详细信息
固有亮度:
5
最大亮度:
2.5
卫星平台:
Starlink v1.5
覆盖范围:
全球
运营商:
太空探索技术公司
运营商所在国:
美国
制造商(研发单位):
太空探索技术公司
制造商所在国:
美国
使用方式:
暂无
卫星简介
星链(Starlink)计划是由太空探索技术公司(SpaceX)提出的一个巨型低轨卫星互联网星座项目,计划在2019年至2024年间在太空搭建由约1.2万颗卫星组成的“星链”网络,其中1584颗将部署在地球上空550千米处的近地轨道,并从2020年开始工作。该卫星仍在工作。
2D轨道图
3D轨道图
轨道高度分析图
轨道倾角分析图
轨道综合分析图
查看轨道综合分析图
交会数据列表
事件ID 空间交会对象 最接近时刻(TCA) 交会距离 交会风险概率(CRP) 交会风险指数(CRI) 操作
CDM_260923-204302-066305-575121
2026-09-23T
20:43:46+0000
1.199 km
极远距离
1.052822E-5 中风险 0.55
CDM_260922-074504-317105-575121
2026-09-22T
07:45:02+0000
1.347 km
极远距离
8.320624E-6 低风险 0.53
CDM_260916-005203-215005-575126
2026-09-16T
00:52:24+0000
1.542 km
极远距离
6.200038E-6 低风险 0.51
CDM_260922-132004-317105-575121
2026-09-22T
13:20:04+0000
2.048 km
极远距离
2.361003E-6 低风险 0.42
与全量物体交会距离演化趋势 订阅飞行安全评估服务
与全量物体交会风险概率演化趋势 订阅飞行安全评估服务